Tracking 19212 objects as of 17-Jul-2018
HD Live streaming from Space Station
objects crossing your sky now

RAX-2

Track RAX-2 now!
10-day predictions
RAX-2 is classified as:


NORAD ID: 37853
Int'l Code: 2011-061D
Perigee: 446.3 km
Apogee: 685.3 km
Inclination: 101.7 °
Period: 95.8 minutes
Semi major axis: 6936 km
RCS: 0.0758 m2 (small)
Launch date: October 28, 2011
Source: United States (US)
Launch site: AIR FORCE WESTERN TEST RANGE (AFWTR)
Uplink (MHz):
Downlink (MHz): 437.345
Beacon (MHz): 437.345
Mode: 9600bps GMSK
Call sign:
Status: Inactive

aabbcc
Your satellite tracking list
Your tracking list is empty




NASA's NSSDC Master Catalog

Two Line Element Set (TLE):
1 37853U 11061D   18197.40488794 +.00001153 +00000-0 +71231-4 0  9993
2 37853 101.7117 268.2586 0172295 006.4744 353.8636 15.02668647365344
Source of the keplerian elements: AFSPC